Regional Weather Roundup
Issued by NWS

Home | Current Version | Previous Version | Text Only | Print | Product List | Glossary Off
Versions: 1 2 3 4 5 6 7 8 9 10 11 12 13 14 15 16 17 18 19 20 21 22 23 24 25 26 27 28 29 30 31 32 33 34 35 36 37 38 39 40 41 42 43 44 45 46 47 48 49 50

000
ASUS43 KOAX 121102
RWRNE

WEATHER ROUNDUP FOR NEBRASKA
NATIONAL WEATHER SERVICE OMAHA NE
600 AM CDT SAT JUL 12 2014

NOTES: SATELLITE DATA IS BEING USED TO AUGMENT CLOUD COVER ABOVE
       12000 FEET.
       "FAIR" INDICATES FEW OR NO CLOUDS BELOW 12,000 FEET WITH NO
       SIGNIFICANT WEATHER AND/OR OBSTRUCTIONS TO VISIBILITY.

  * THESE STATIONS DO NOT REPORT WEATHER SUCH AS RAIN...SNOW OR FOG.

NEZ001>004-019>022-054>056-121200-
NEBRASKA PANHANDLE

CITY           SKY/WX    TMP DP  RH WIND       PRES   REMARKS
SCOTTSBLUFF    MOCLDY    60  59  96 NW7       30.13F
ALLIANCE       CLOUDY    60  59  96 NW8       30.12R
CHADRON        MOCLDY    63  60  90 NW5       30.12S
KIMBALL        CLOUDY    61  61  98 NW8       30.16S
SIDNEY         CLOUDY    63  60  90 NW8       30.14F
$$

NEZ057>060-069>072-079>082-121200-
SOUTHWEST NEBRASKA

CITY           SKY/WX    TMP DP  RH WIND       PRES   REMARKS
NORTH PLATTE   CLOUDY    67  64  90 CALM      30.03R
IMPERIAL       CLOUDY    69  66  90 CALM      30.05F
LEXINGTON      CLOUDY    73  71  93 E12       29.98F FOG
MCCOOK         MOCLDY    71  68  90 NW7       30.00F
OGALLALA       CLOUDY    66  64  94 N6        30.07R
$$

NEZ005>010-023>029-035>040-094-121200-
NORTH CENTRAL NEBRASKA

CITY           SKY/WX    TMP DP  RH WIND       PRES   REMARKS
VALENTINE      CLOUDY    67  63  87 N9        30.06R
AINSWORTH      CLOUDY    67  66  99 CALM      30.05R
BROKEN BOW     CLOUDY    69  66  90 E7        30.01S
O`NEILL        CLOUDY    66  62  86 SE9       30.00S
ORD            LGT RAIN  68  66  93 E9        29.98F
THEDFORD       CLOUDY    66  65  96 CALM      30.05R
$$

NEZ041-046>049-061>064-073>077-083>087-121200-
SOUTH CENTRAL NEBRASKA

CITY           SKY/WX    TMP DP  RH WIND       PRES   REMARKS
GRAND ISLAND   CLOUDY    72  70  93 NE12      30.02S FOG
AURORA         CLOUDY    71  69  96 NE5       30.02S
HASTINGS       CLOUDY    70  63  78 N3        30.02R
HEBRON         CLOUDY    74  64  70 SW5       30.00S
HOLDREGE       MOCLDY    69  61  76 NE3       30.00S
KEARNEY *      CLOUDY    70  64  83 E7        30.01F
YORK           CLOUDY    70  68  94 E3        30.03S
$$

NEZ011>018-030>034-042>045-121200-
NORTHEAST NEBRASKA

CITY           SKY/WX    TMP DP  RH WIND       PRES   REMARKS
NORFOLK        CLOUDY    69  66  90 E6        30.03F
ALBION         DRIZZLE   68  67  96 E6        30.02F
BLAIR          CLOUDY    71  67  87 NE8       30.04S
FREMONT        CLOUDY    73  69  89 NE8       30.03F
TEKAMAH        CLOUDY    71  68  90 CALM      30.02F
WAYNE          LGT RAIN  69  68  97 CALM      30.04S
$$

NEZ050>053-065>068-078-088>093-121200-
SOUTHEAST NEBRASKA

CITY           SKY/WX    TMP DP  RH WIND       PRES   REMARKS
LINCOLN        CLOUDY    74  69  85 NE3       30.03R
OMAHA EPPLEY   CLOUDY    72  67  84 N8        30.03S
BEATRICE       CLOUDY    73  64  73 CALM      30.01S
FALLS CITY     CLOUDY    76  68  76 S6        30.00S
NEBRASKA CITY  CLOUDY    73  68  84 N5        30.04R
PLATTSMOUTH    CLOUDY    74  70  88 CALM      30.02F
$$

NEZ044-045-051>053-067-121200-
OMAHA AREA

CITY           SKY/WX    TMP DP  RH WIND       PRES   REMARKS
OMAHA EPPLEY   CLOUDY    72  67  84 N8        30.03S
BLAIR          CLOUDY    71  67  87 NE8       30.04S
FREMONT        CLOUDY    73  69  89 NE8       30.03F
MILLARD        CLOUDY    74  72  91 CALM      30.02S
OFFUTT AFB     CLOUDY    74  74 100 NE7       30.02S
PLATTSMOUTH    CLOUDY    74  70  88 CALM      30.02F
WAHOO          FAIR      72  68  88 NE7       30.02F
$$



USA.gov is the U.S. government's official web portal to all federal, state and local government web resources and services.